Tracking 20232 objects as of 20-Jan-2020
HD Live streaming from Space Station
objects crossing your sky now

COSMOS 2110 (GLONASS)

Track COSMOS 2110 (GLONASS) now!
COSMOS 2110 (GLONASS) is classified as:


NORAD ID: 21007
Int'l Code: 1990-110B
Perigee: 19,021.7 km
Apogee: 19,252.4 km
Inclination: 64.2 °
Period: 675.7 minutes
Semi major axis: 25508 km
RCS: 1.5445 m2 (large)
Launch date: December 8, 1990
Source: Commonwealth of Independent States (former USSR) (CIS)
Launch site: TYURATAM MISSILE AND SPACE COMPLEX (TTMTR)
aabbcc
Your satellite tracking list
Your tracking list is empty




NASA's NSSDC Master Catalog

Two Line Element Set (TLE):
1 21007U 90110B   20019.60743792  .00000017  00000-0  00000+0 0  9998
2 21007  64.1538 151.9915 0045221 192.0652 158.8695  2.13101284226609
Source of the keplerian elements: AFSPC